Hourly Weather Roundup
Issued by NWS Central Illinois

Home | Current Version | Previous Version | Text Only | Print | Product List | Glossary On
Versions: 1 2 3 4 5 6 7 8 9 10 11 12 13 14 15 16 17 18 19 20 21 22 23 24 25 26 27 28 29 30 31 32 33 34 35 36 37 38 39 40 41 42 43 44 45 46 47 48 49 50
000
NZUS43 KILX 041710
HWRILX

AREA WEATHER ROUNDUP
NATIONAL WEATHER SERVICE, LINCOLN IL
1200 PM CDT FRI SEP 04 2015


CITY           SKY/WX    TMP DP  RH WIND       PRES   REMARKS
BLOOMINGTON    MOSUNNY   91  70  50 SW8       30.05F HX  96
CHAMPAIGN      MOSUNNY   88  67  49 SW6       30.04F HX  91
DANVILLE       SUNNY     89  71  56 SW6       30.02S HX  95
DECATUR        SUNNY     90  68  48 VRB6      30.04F HX  94
EFFINGHAM      PTSUNNY   89  63  42 SW5       30.06S HX  89
FLORA          SUNNY     90  66  45 NW3       30.04F HX  92
GALESBURG      MOSUNNY   89  69  51 SW3       30.03S HX  93
JACKSONVILLE   MOSUNNY   92  68  45 SW3       30.03F HX  95
LACON          SUNNY     86  70  58 SW3       30.01F HX  91
LAWRENCEVILLE  SUNNY     91  66  43 SW7       30.04F HX  93
LITCHFIELD     SUNNY     88  66  48 CALM      30.04F HX  90
$$


CITY           SKY/WX    TMP DP  RH WIND       PRES   REMARKS
LINCOLN        MOSUNNY   90  68  48 CALM      30.01F HX  94
MACOMB         SUNNY     91  69  48 S6        30.04F HX  95
MATTOON        MOSUNNY   90  64  42 VRB6      30.04S HX  91
MT CARMEL AP   MOSUNNY   90  64  43 S6        30.04F HX  91
OLNEY-NOBLE AP MOSUNNY   90  70  51 SE5       30.04F HX  95
PARIS          MOSUNNY   89  69  50 S6        30.05S HX  93
PEORIA         SUNNY     92  67  43 VRB3      30.02F HX  95
PONTIAC        MOSUNNY   89  74  60 W6        30.03F HX  98
RANTOUL        NOT AVBL
ROBINSON       MOSUNNY   90  67  47 SW5       30.05F HX  93
SPRINGFIELD    SUNNY     91  69  48 SW7       30.03F HX  96
TAYLORVILLE    MOSUNNY   90  68  48 SW5       30.03F HX  93
$$

...REGIONAL REPORTS...


CITY           SKY/WX    TMP DP  RH WIND       PRES   REMARKS
CHICAGO O`HARE PTSUNNY   78  67  68 CALM      30.03S HX  80
KANKAKEE       PTSUNNY   85  72  66 CALM      30.03F HX  90
MOLINE         MOSUNNY   90  69  50 NW6       30.01S HX  94
MOUNT STERLING SUNNY     88  71  57 W5        30.03S HX  94
MOUNT VERNON   MOSUNNY   91  70  49 S5        30.05F HX  97
PITTSFIELD     SUNNY     90  68  48 SW6       30.04F HX  93
QUINCY         SUNNY     89  69  51 SW6       30.03F HX  93
ROCKFORD       MOSUNNY   82  70  66 S7        30.04F HX  86
$$


CITY           SKY/WX    TMP DP  RH WIND       PRES   REMARKS
BURLINGTON     SUNNY     89  71  55 VRB6      30.01F HX  95
CEDAR RAPIDS   SUNNY     85  72  65 SW9       30.00F HX  91
DES MOINES     PTSUNNY   88  71  57 S13       29.96S HX  94
KIRKSVILLE     SUNNY     88  68  51 SW9       30.03F HX  91
OTTUMWA        SUNNY     87  72  60 S12       29.99S HX  93
ST LOUIS       PTSUNNY   91  68  46 W6        30.04F HX  95
$$


CITY           SKY/WX    TMP DP  RH WIND       PRES   REMARKS
TERRE HAUTE    MOSUNNY   91  68  46 SW8       30.04F HX  95
EVANSVILLE     SUNNY     90  67  46 SW5       30.05F HX  93
INDIANAPOLIS   MOSUNNY   91  66  43 W8        30.04F HX  93
LAFAYETTE      SUNNY     89  66  46 W7        30.02S HX  91
MADISON        PTSUNNY   75  66  73 CALM      30.04S
MILWAUKEE      MOSUNNY   74  65  73 NE6       30.04F
$$




USA.gov is the U.S. government's official web portal to all federal, state and local government web resources and services.